Tracking 27419 objects as of 9-Jun-2023
HD Live streaming from Space Station
objects crossing your sky now

PSLV R/B

Track PSLV R/B now!
10-day predictions


NORAD ID: 51659
Int'l Code: 2022-013D
Perigee: 488.4 km
Apogee: 532.3 km
Inclination: 97.6 °
Period: 94.7 minutes
Semi major axis: 6881 km
RCS: Unknown
Launch date: February 14, 2022
Source: India (IND)
Launch site: SRIHARIKOTA (SRI)

Note: This is a ROCKET BODY
Your satellite tracking list
Your tracking list is empty




NASA's NSSDC Master Catalog

Two Line Element Set (TLE):
1 51659U 22013D   23159.53845536  .00006951  00000-0  31351-3 0  9990
2 51659  97.5602 173.5073 0031888 111.8979 248.5652 15.20877292 72720
Source of the keplerian elements: AFSPC